Flight Track Log - Related Links

Times and Time Zones

All times are in EDT time to prevent confusion due to time zone crossing. See the SWA1910 flight status page for this flight to view local times or setup timezone preferences in your user account.

Time Position Orientation Groundspeed Altitude Reporting Facility
EDT Latitude Longitude Course Direction KTS MPH feet Rate Location/Type
Sun 05:41:07 PM 42.9167 -78.7667 236° Southwest 165 190 2,600  Level Buffalo TRACON
Sun 05:42:01 PM 42.8667 -78.7667 180° South 210 242 6,200 3,767 Climbing Buffalo TRACON
Sun 05:42:33 PM 42.8358 -78.7742 190° South 199 229 8,000 2,478 Climbing Cleveland Center
Sun 05:43:33 PM 42.7772 -78.7558 167° South 244 281 10,000 1,950 Climbing Cleveland Center
Sun 05:44:33 PM 42.6978 -78.7414 172° South 269 310 11,900 2,400 Climbing Cleveland Center
Sun 05:45:33 PM 42.6058 -78.7214 171° South 309 356 14,800 1,550 Climbing Cleveland Center
Sun 05:46:00 PM 42.3705 -78.6500 180° South  Level FlightAware Approximate
Sun 05:46:33 PM 42.5075 -78.7017 172° South 336 387 15,000  Level Cleveland Center
Sun 05:47:33 PM 42.4111 -78.6764 169° South 354 407 17,600 2,550 Climbing Cleveland Center
Sun 05:48:33 PM 42.3261 -78.5836 141° Southeast 361 415 20,100 2,150 Climbing Cleveland Center
Sun 05:49:33 PM 42.2389 -78.4881 141° Southeast 381 438 21,900 1,850 Climbing Cleveland Center
Sun 05:50:33 PM 42.1433 -78.3819 141° Southeast 393 452 23,800 1,550 Climbing Cleveland Center
Sun 05:51:33 PM 42.0558 -78.2789 139° Southeast 405 466 25,000 600 Climbing Cleveland Center
Sun 05:52:33 PM 41.9789 -78.1894 139° Southeast 410 472 25,000  Level Cleveland Center
Sun 05:53:33 PM 41.8786 -78.0814 141° Southeast 417 480 25,000  Level Cleveland Center
Sun 05:54:04 PM 41.8347 -78.0314 140° Southeast 418 481 25,000  Level New York Center
Sun 05:55:04 PM 41.7528 -77.9419 141° Southeast 423 487 25,000  Level New York Center
Sun 05:56:05 PM 41.6650 -77.8408 139° Southeast 423 487 25,000  Level New York Center
Sun 05:57:05 PM 41.5750 -77.7425 141° Southeast 423 487 25,000  Level New York Center
Sun 05:58:06 PM 41.4892 -77.6450 140° Southeast 418 481 25,000 -202 Level New York Center
Sun 05:59:04 PM 41.3911 -77.5353 140° Southeast 418 481 24,600 -712 Descending New York Center
Sun 06:00:04 PM 41.3047 -77.4411 141° Southeast 418 481 23,600 -984 Descending New York Center
Sun 06:01:06 PM 41.2161 -77.3494 142° Southeast 418 481 22,600 -1,000 Descending New York Center
Sun 06:02:04 PM 41.1319 -77.2531 139° Southeast 418 481 21,600 -1,017 Descending New York Center
Sun 06:03:04 PM 41.0453 -77.1622 142° Southeast 413 475 20,600 -992 Descending New York Center
Sun 06:04:05 PM 40.9622 -77.0747 141° Southeast 407 468 19,600 -942 Descending New York Center
Sun 06:05:05 PM 40.8914 -76.9969 140° Southeast 390 449 18,700 -1,008 Descending New York Center
Sun 06:06:04 PM 40.8008 -76.8981 140° Southeast 380 437 17,600 -1,008 Descending New York Center
Sun 06:07:04 PM 40.7339 -76.8208 139° Southeast 375 432 16,700 -942 Descending New York Center
Sun 06:08:05 PM 40.6572 -76.7267 137° Southeast 375 432 15,700 -893 Descending New York Center
Sun 06:09:05 PM 40.5747 -76.6292 138° Southeast 370 426 14,900 -397 Descending New York Center
Sun 06:10:06 PM 40.5189 -76.5344 128° Southeast 375 432 14,900  Level New York Center
Sun 06:11:06 PM 40.4375 -76.4511 142° Southeast 357 411 14,900  Level New York Center
Sun 06:12:07 PM 40.3533 -76.4689 189° South 300 345 14,900 -202 Level New York Center
Sun 06:13:05 PM 40.2625 -76.4911 191° South 318 366 14,500 -706 Descending New York Center
Sun 06:14:06 PM 40.1844 -76.5119 192° South 323 372 13,500 -1,109 Descending New York Center
Sun 06:15:04 PM 40.0956 -76.5372 192° South 312 359 12,300 -800 Descending New York Center
Sun 06:16:06 PM 40.0156 -76.5550 190° South 304 350 11,900 -57 Descending New York Center
Sun 06:18:36 PM 39.8500 -76.4667 158° South 281 323 12,100 -29 Climbing Potomac TRACON
Sun 06:19:31 PM 39.7667 -76.5000 197° South 284 327 11,800 -1,050 Descending Potomac TRACON
Sun 06:20:36 PM 39.7000 -76.5167 191° South 296 341 10,000 -1,619 Descending Potomac TRACON
Sun 06:21:37 PM 39.6167 -76.4833 163° South 306 352 8,400 -1,289 Descending Potomac TRACON
Sun 06:22:37 PM 39.5333 -76.4500 163° South 288 331 7,400 -1,000 Descending Potomac TRACON
Sun 06:23:37 PM 39.4833 -76.4667 194° South 250 288 6,400 -737 Descending Potomac TRACON
Sun 06:24:31 PM 39.4667 -76.5500 256° West 231 266 6,000 -200 Descending Potomac TRACON
Sun 06:25:37 PM 39.4667 -76.6333 270° West 237 273 6,000 -286 Level Potomac TRACON
Sun 06:26:37 PM 39.4667 -76.7000 270° West 242 278 5,400 -600 Descending Potomac TRACON

Login

Don't have an account? Register now (free) for customized features, flight alerts, and more!